OBJECT K, 42834

Orbit data source: Space-Track

You're viewing an uncataloged RSO

Recently launched and/or uncataloged RSOs may have evolving metadata. Metadata may include the following, but is not limited to: Owner, Manufacturer, Bus, Motor, and Mission.

OBJECT K, 42834 is a satellite in SSO that was launched on Fri, 14 Jul 2017 UTC via a SOYUZ-2-1A launch vehicle from the Tyuratam Missile And Space Complex (TTMTR). Unknown objects in Earth's orbit typically refer to objects detected orbiting the Earth but have not yet been identified or cataloged. These objects could be anything from previously untracked satellites, spent rocket stages, debris from satellite collisions, or even natural meteoroids temporarily captured by Earth's gravity.

Loading next visibility...
Identifier
42834, 2017-042K
Orbit
SSO
Country
Flag of TBDTBD
Related business
None
Manufacturer
Unknown
Mission
Non-operational Civil Technology
Bus & Motor
Unknown
Mass
Unknown
Launch date (UTC)
2017-07-14 (9 years ago)
Launch vehicle
SOYUZ-2-1A
Launch site
Tyuratam Missile And Space Complex (TTMTR)
Object type
Unknown
Shape & HBR
Box + 2 Pan, 0.2 m
Radar Cross Section
0.092 m², Medium (>0.1 m² and < 1m²)

Expand to show TLE details & history
Last TLE update: 9 hours ago

TLE from 9 hours ago
0 OBJECT K
1 42834U 17042K   26251.38730916  .00004640  00000-0  29111-3 0  9999
2 42834  97.4310  50.3423 0009936 128.5084 231.7038 15.09741728499537
Epoch: 2026-09-08T09:17Z
TLE epoch observation values (Epoch: 2026-09-08T09:17:43.511Z)
Latitude
-0.00002°
Longitude
-76.54345°
Altitude
544.327 km
Speed
7.588 km/s
True Right ascension
03h 21m 22s
True Declination
0° 00' 00"
Sunlit
Object was in full shadow at epoch
Visualization orbit readout
Latitude
Unknown
Longitude
Unknown
Altitude
Unknown
Speed
Unknown
Apparent Right ascension
Unknown
Apparent Declination
Unknown
Sunlit
N/A
Visualization observer readout
Local Sidereal Time
10:21:36
Azimuth
Unknown
Elevation
Unknown
Doppler factor
Unknown
Orbital elements
Apogee altitude
540.837 km
Perigee altitude
527.101 km
Semi-major axis
6,912.106 km
Eccentricity
0.00099
Inclination
97.431°
RAAN
50.3423°
Arg. of periapsis
128.5084°
True anomaly
231.61451°
Mean anomaly
231.7038°
Eccentric anomaly
231.65915°
Mean motion
3.77683 °/min
Orbital period
95.32 mins
BSTAR
0.00029111
Loading maneuver chart data...
Computing Atmospheric mass density...
Loading historical data...
Loading historical data...
Loading historical data...
Loading historical data...
Loading historical data...
Loading historical data...
Loading historical data...

Documentation

Showing up to 5 results
|